Weather History for Wisconsin Rapids, WI

Change the Weather History Date:

Tuesday, January 21, 2014

  Actual Average Record
Temperature  
Mean Temperature -6 °F -  
Max Temperature 3 °F 27 °F 49 °F (1964)
Min Temperature -14 °F 8 °F -25 °F (1963)
Degree Days  
Heating Degree Days 70    
Moisture  
Dew Point -13 °F    
Average Humidity 68    
Maximum Humidity 82    
Minimum Humidity 50    
Precipitation  
Precipitation 0.00 in - - ()
Sea Level Pressure  
Sea Level Pressure 30.34 in    
Wind  
Wind Speed 7 mph (WNW)    
Max Wind Speed 12 mph    
Max Gust Speed -    
Visibility 10 miles    
Events      
Averages and records for this station are not official NWS values.
T = Trace of Precipitation, MM = Missing Value Source: NWS Daily Summary

Daily Weather History Graph

Daily Weather History Graph

Search for Another Location

Airport:

Trip Planner

Search our weather history database for the weather conditions in past years. The results will help you decide how hot, cold, wet, or windy it might be!

Date:

Astronomy

Jan. 21, 2014 Rise Set
Actual Time 7:28 AM CST 4:53 PM CST
Civil Twilight 6:56 AM CST 5:25 PM CST
Nautical Twilight 6:20 AM CST 6:01 PM CST
Astronomical Twilight 5:46 AM CST 6:35 PM CST
Moon 10:41 PM CST (1/21) 9:44 AM CST (1/21)
Length of Visible Light 10h 29m
Length of Day
9h 25m
Waning Gibbous, 74% of the Moon is Illuminated
Jan 21
Waning Gibbous
Jan 23
Last Quarter
Jan 30
New
Feb 6
First Quarter
Feb 14
Full

Hourly Weather History & Observations

Time (CST) Temp. Windchill Dew Point Humidity Pressure Visibility Wind Dir Wind Speed Gust Speed Precip Events Conditions
12:54 AM -2.9 °F -17.7 °F -11.0 °F 68% 30.36 in 10.0 mi NNW 8.1 mph - N/A   Clear
1:54 AM -4.0 °F -22.1 °F -11.0 °F 72% 30.38 in 10.0 mi NNW 11.5 mph - N/A   Clear
2:54 AM -5.1 °F -20.4 °F -11.9 °F 72% 30.39 in 10.0 mi NNW 8.1 mph - N/A   Clear
3:54 AM -6.0 °F -24.6 °F -13.0 °F 72% 30.41 in 10.0 mi NNW 11.5 mph - N/A   Clear
4:54 AM -9.0 °F -26.4 °F -14.1 °F 79% 30.41 in 10.0 mi NW 9.2 mph - N/A   Clear
5:54 AM -9.9 °F -24.9 °F -15.0 °F 78% 30.43 in 10.0 mi NW 6.9 mph - N/A   Clear
6:54 AM -11.9 °F -21.5 °F -16.1 °F 82% 30.43 in 10.0 mi WNW 3.5 mph - N/A   Clear
7:54 AM -14.1 °F -28.3 °F -18.0 °F 82% 30.44 in 10.0 mi NW 5.8 mph - N/A   Clear
8:54 AM -11.0 °F -26.2 °F -16.1 °F 78% 30.43 in 10.0 mi NW 6.9 mph - N/A   Clear
9:54 AM -7.1 °F -21.4 °F -14.1 °F 72% 30.42 in 10.0 mi NW 6.9 mph - N/A   Clear
10:54 AM -2.9 °F - -11.9 °F 65% 30.41 in 10.0 mi Calm Calm - N/A   Clear
11:54 AM -2.0 °F -15.4 °F -13.0 °F 60% 30.38 in 10.0 mi WNW 6.9 mph - N/A   Clear
12:54 PM -0.0 °F -16.3 °F -11.0 °F 60% 30.36 in 10.0 mi WNW 10.4 mph - N/A   Clear
1:54 PM 1.9 °F -10.6 °F -11.0 °F 55% 30.34 in 10.0 mi WNW 6.9 mph - N/A   Clear
2:54 PM 3.9 °F - -11.0 °F 50% 30.29 in 10.0 mi Calm Calm - N/A   Clear
3:54 PM 1.9 °F -9.2 °F -11.0 °F 55% 30.30 in 10.0 mi WNW 5.8 mph - N/A   Clear
4:54 PM 1.9 °F -5.6 °F -11.9 °F 52% 30.29 in 10.0 mi West 3.5 mph - N/A   Clear
5:54 PM -2.0 °F - -11.9 °F 63% 30.27 in 10.0 mi Calm Calm - N/A   Clear
6:54 PM -5.1 °F - -13.0 °F 69% 30.26 in 10.0 mi Calm Calm - N/A   Clear
7:54 PM -7.1 °F - -13.0 °F 75% 30.27 in 10.0 mi Calm Calm - N/A   Overcast
8:54 PM -4.0 °F -12.4 °F -11.0 °F 72% 30.24 in 10.0 mi SSW 3.5 mph - N/A   Overcast
9:54 PM -2.0 °F -10.1 °F -9.9 °F 69% 30.20 in 10.0 mi South 3.5 mph - N/A   Overcast
10:54 PM -0.9 °F -11.0 °F -9.9 °F 66% 30.19 in 10.0 mi SSW 4.6 mph - N/A   Overcast
11:54 PM -0.9 °F -12.7 °F -11.0 °F 62% 30.14 in 10.0 mi South 5.8 mph - N/A   Overcast